GW3736 Weather Reports


time (UTC)temp
C
wind
direction
speed
KPH
gust
KPH
rain 1hr
cm
rain 24hr
cm
rain mn
cm
humidity
%
barometer
mb
20260507192530 12 298 8.0 20.9 0.00 0.00 0.00 41 1007.2
20260507191526 13 298 12.9 24.1 0.00 0.00 0.00 38 1007.4
20260507190522 13 299 11.3 25.7 0.00 0.00 0.00 38 1007.3
20260507185518 13 281 16.1 29.0 0.00 0.00 0.00 39 1007.3
20260507184534 13 292 14.5 25.7 0.00 0.00 0.00 40 1007.4
20260507183550 13 296 14.5 29.0 0.00 0.00 0.00 40 1007.3
20260507182546 14 291 16.1 30.6 0.00 0.00 0.00 40 1007.5
20260507181522 13 295 12.9 22.5 0.00 0.00 0.00 42 1007.5
20260507180518 13 293 11.3 25.7 0.00 0.00 0.00 42 1007.5
20260507175534 13 309 12.9 25.7 0.00 0.00 0.00 40 1007.6
20260507174530 13 293 11.3 24.1 0.00 0.00 0.00 43 1007.5
20260507173526 13 305 11.3 27.4 0.00 0.00 0.00 41 1007.5
20260507172522 13 286 12.9 27.4 0.00 0.00 0.00 41 1007.6
20260507171518 13 303 11.3 24.1 0.00 0.00 0.00 42 1007.6
20260507170534 13 307 8.0 17.7 0.00 0.00 0.00 41 1007.8
20260507165550 13 306 6.4 16.1 0.00 0.00 0.00 42 1007.8
20260507164526 13 301 8.0 17.7 0.00 0.00 0.00 42 1007.9
20260507163522 13 309 8.0 12.9 0.00 0.00 0.00 43 1007.8
20260507162518 13 312 8.0 16.1 0.00 0.00 0.00 44 1007.9
20260507161534 13 307 9.7 17.7 0.00 0.00 0.00 45 1008.0
20260507160531 13 311 8.0 14.5 0.00 0.00 0.00 47 1008.0
20260507155526 12 26 4.8 11.3 0.00 0.00 0.00 49 1008.1
20260507154543 12 316 6.4 14.5 0.00 0.00 0.00 45 1008.2
20260507153518 12 323 6.4 12.9 0.00 0.00 0.00 45 1008.1
20260507152534 12 316 8.0 17.7 0.00 0.00 0.00 45 1008.0
20260507151530 13 321 6.4 16.1 0.00 0.00 0.00 45 1008.1
20260507150526 12 301 11.3 22.5 0.00 0.00 0.00 45 1008.2
20260507145542 12 302 12.9 27.4 0.00 0.00 0.00 45 1008.2
20260507144538 12 322 6.4 11.3 0.00 0.00 0.00 45 1008.3
20260507143534 12 327 6.4 12.9 0.00 0.00 0.00 49 1008.2
20260507142530 12 326 3.2 12.9 0.00 0.00 0.00 48 1008.3
20260507141527 11 327 4.8 11.3 0.00 0.00 0.00 50 1008.5
20260507140523 11 334 4.8 9.7 0.00 0.00 0.00 52 1008.6
20260507135538 11 326 4.8 11.3 0.00 0.00 0.00 51 1008.6
20260507134535 11 330 3.2 9.7 0.00 0.00 0.00 52 1008.8
20260507133550 10 332 1.6 6.4 0.00 0.00 0.00 58 1008.8
20260507132526 10 327 4.8 9.7 0.00 0.00 0.00 58 1008.7
20260507131522 10 327 3.2 4.8 0.00 0.00 0.00 63 1008.8
20260507130539 9 328 3.2 6.4 0.00 0.00 0.00 65 1008.7
20260507125534 8 328 3.2 4.8 0.00 0.00 0.00 71 1008.7
20260507124531 8 332 0.0 3.2 0.00 0.00 0.00 71 1008.8
20260507123526 7 332 0.0 1.6 0.00 0.00 0.00 74 1008.9
20260507122522 7 332 0.0 1.6 0.00 0.00 0.00 74 1008.8
20260507121518 6 332 0.0 1.6 0.00 0.00 0.00 75 1008.7
20260507120534 6 332 1.6 3.2 0.00 0.00 0.00 75 1008.8
20260507115531 5 335 1.6 3.2 0.00 0.00 0.00 75 1008.7
20260507114527 5 336 3.2 4.8 0.00 0.00 0.00 76 1008.7
20260507113543 5 332 1.6 3.2 0.00 0.00 0.00 76 1008.7
20260507112519 5 332 0.0 3.2 0.00 0.00 0.00 76 1008.7
20260507111534 4 333 1.6 3.2 0.00 0.00 0.00 76 1008.7
20260507110530 4 333 0.0 1.6 0.00 0.00 0.00 76 1008.4
20260507105526 4 0.0 0.0 0.00 0.00 0.00 76 1008.6
20260507104522 4 0.0 0.0 0.00 0.00 0.00 77 1008.3
20260507103518 4 332 1.6 3.2 0.00 0.00 0.00 77 1008.2
20260507102534 4 334 1.6 3.2 0.00 0.00 0.00 76 1008.3
20260507101530 4 335 1.6 3.2 0.00 0.00 0.00 75 1008.2
20260507100526 4 337 1.6 3.2 0.00 0.00 0.00 75 1008.2
20260507095522 5 338 1.6 3.2 0.00 0.00 0.00 75 1008.1
20260507094518 5 0.0 0.0 0.00 0.00 0.00 75 1008.1
20260507093534 5 0.0 0.0 0.00 0.00 0.00 75 1008.1
20260507092530 5 0.0 0.0 0.00 0.00 0.00 74 1008.3
20260507091526 5 0.0 0.0 0.00 0.00 0.00 74 1008.2
20260507090542 5 0.0 0.0 0.00 0.00 0.00 74 1008.3
20260507085518 5 0.0 0.0 0.00 0.00 0.00 74 1008.5
20260507084535 5 0.0 0.0 0.00 0.00 0.00 74 1008.4
20260507083530 6 0.0 0.0 0.00 0.00 0.00 74 1008.4
20260507082527 6 0.0 0.0 0.00 0.00 0.00 73 1008.4
20260507081523 6 339 0.0 1.6 0.00 0.00 0.00 73 1008.4
20260507080518 6 339 0.0 1.6 0.00 0.00 0.00 72 1008.3
20260507075534 6 339 0.0 1.6 0.00 0.00 0.00 70 1008.4
20260507074530 6 0.0 0.0 0.00 0.00 0.00 69 1008.3
20260507073546 7 332 0.0 1.6 0.00 0.00 0.00 68 1008.3
20260507072523 7 332 1.6 3.2 0.00 0.00 0.00 68 1008.2
20260507071518 7 332 1.6 3.2 0.00 0.00 0.00 69 1008.3
20260507070534 7 332 1.6 3.2 0.00 0.00 0.00 69 1008.2
20260507065530 7 332 0.0 3.2 0.00 0.00 0.00 69 1008.3
20260507064526 7 332 1.6 3.2 0.00 0.00 0.00 69 1008.3
20260507063522 8 333 1.6 3.2 0.00 0.00 0.00 70 1008.3
20260507062518 8 328 1.6 3.2 0.00 0.00 0.00 70 1008.2
20260507061534 8 329 3.2 6.4 0.00 0.00 0.00 72 1008.2
20260507060530 8 336 1.6 3.2 0.00 0.00 0.00 72 1008.2
20260507055546 8 336 1.6 3.2 0.00 0.00 0.00 73 1008.3
20260507054521 8 329 1.6 3.2 0.00 0.00 0.00 73 1008.3
20260507053537 8 237 0.0 1.6 0.00 0.00 0.00 73 1008.4
20260507052533 9 212 1.6 3.2 0.00 0.00 0.00 73 1008.5
20260507051529 9 225 1.6 4.8 0.00 0.00 0.00 73 1008.6
20260507050545 9 216 3.2 9.7 0.00 0.00 0.00 73 1008.6
20260507045521 9 227 3.2 9.7 0.00 0.00 0.00 73 1008.7
20260507044517 8 198 1.6 6.4 0.00 0.00 0.00 73 1008.7
20260507043554 8 198 3.2 11.3 0.00 0.00 0.00 73 1008.7
20260507042529 8 225 3.2 6.4 0.00 0.00 0.00 73 1008.9
20260507041525 8 169 4.8 9.7 0.00 0.00 0.00 72 1008.8
20260507040521 8 181 6.4 16.1 0.00 0.00 0.00 72 1008.9
20260507035517 8 170 6.4 14.5 0.00 0.00 0.00 71 1009.0
20260507034533 9 188 4.8 12.9 0.00 0.00 0.00 71 1009.0
20260507033528 9 166 6.4 14.5 0.00 0.00 0.00 70 1009.1
20260507032525 9 174 6.4 12.9 0.00 0.00 0.00 70 1009.1
20260507031521 9 179 4.8 12.9 0.00 0.00 0.00 69 1009.2
20260507030516 9 164 4.8 12.9 0.00 0.00 0.00 69 1009.1
20260507025613 9 169 4.8 11.3 0.00 0.00 0.00 68 1009.3
20260507024529 9 173 4.8 11.3 0.00 0.00 0.00 68 1009.2
20260507023524 10 163 6.4 14.5 0.00 0.00 0.00 69 1009.2
20260507022520 10 157 4.8 12.9 0.00 0.00 0.00 68 1009.1
20260507021516 10 157 6.4 11.3 0.00 0.00 0.00 66 1009.1
20260507020532 9 146 3.2 6.4 0.00 0.00 0.00 64 1009.0
20260507015528 10 146 3.2 4.8 0.00 0.00 0.00 64 1009.0
20260507014604 10 141 3.2 4.8 0.00 0.00 0.00 64 1008.9
20260507013520 9 135 3.2 9.7 0.00 0.00 0.00 64 1008.9
20260507012516 9 137 3.2 4.8 0.00 0.00 0.00 63 1008.8
20260507011531 10 139 1.6 3.2 0.00 0.00 0.00 63 1008.7
20260507010528 10 139 0.0 3.2 0.00 0.00 0.00 63 1008.8
20260507005523 10 128 1.6 3.2 0.00 0.00 0.00 63 1008.8
20260507004519 10 131 3.2 6.4 0.00 0.00 0.00 62 1008.7
20260507003535 10 127 4.8 11.3 0.00 0.00 0.00 61 1008.8
20260507002531 10 128 3.2 9.7 0.00 0.00 0.00 60 1008.9
20260507001527 10 127 4.8 9.7 0.00 0.00 0.00 61 1008.8
20260507000523 10 125 6.4 11.3 0.00 0.00 0.00 61 1008.7
20260506235559 10 125 4.8 11.3 0.00 0.00 0.00 60 1008.7
20260506234535 10 126 4.8 11.3 0.00 0.00 0.00 59 1008.7
20260506233551 10 126 6.4 11.3 0.00 0.00 0.00 60 1008.6
20260506232527 10 120 6.4 11.3 0.00 0.00 0.00 59 1008.5
20260506231523 10 126 8.0 14.5 0.00 0.00 0.00 59 1008.4
20260506230519 10 78 6.4 16.1 0.00 0.00 0.00 58 1008.5
20260506225535 11 71 4.8 12.9 0.00 0.00 0.00 58 1008.7
20260506224531 11 69 4.8 12.9 0.00 0.00 0.00 58 1008.7
20260506223527 11 69 4.8 9.7 0.00 0.00 0.00 57 1008.6
20260506222523 10 66 3.2 9.7 0.00 0.00 0.00 57 1008.7
20260506221559 10 68 4.8 9.7 0.00 0.00 0.00 57 1008.7
20260506220534 10 65 3.2 11.3 0.00 0.00 0.00 57 1008.7
20260506215530 10 64 3.2 9.7 0.00 0.00 0.00 57 1008.6
20260506214527 10 64 3.2 9.7 0.00 0.00 0.00 57 1008.7
20260506213543 11 67 3.2 9.7 0.00 0.00 0.00 58 1008.5
20260506212518 10 73 6.4 12.9 0.00 0.00 0.00 59 1008.5
20260506211535 10 62 1.6 4.8 0.00 0.00 0.00 59 1008.5
20260506210531 10 58 1.6 4.8 0.00 0.00 0.00 58 1008.5
20260506205527 10 62 1.6 3.2 0.00 0.00 0.00 58 1008.3
20260506204542 10 65 4.8 11.3 0.00 0.00 0.00 59 1008.3
20260506203619 10 62 3.2 6.4 0.00 0.00 0.00 59 1008.3
20260506202535 10 62 4.8 11.3 0.00 0.00 0.00 59 1008.4
20260506201530 10 54 3.2 6.4 0.00 0.00 0.00 60 1008.5
20260506200526 10 60 3.2 9.7 0.00 0.00 0.00 60 1008.4
20260506195522 10 66 4.8 12.9 0.00 0.00 0.00 59 1008.6
20260506194519 10 60 4.8 14.5 0.00 0.00 0.00 60 1008.5
20260506193535 10 63 4.8 22.5 0.00 0.00 0.00 59 1008.5